Location: Pedholt
(56.0260°N, 10.2097°E)
Time: 00:25:20
(UTC+00:00)

A-11 Canister half - Pass Details

Date: 04 August 2021
Orbit: 1515 x 1685 km, 47.2° (Epoch: 19 September)

Event Time Altitude Azimuth Distance (km) Brightness Sun altitude
Rises 19:49:22 0° 273° (W) 4,859 12.6 -4.1°
Reaches altitude 10° 19:52:38 10° 267° (W) 3,892 11.9 -4.5°
Maximum altitude 20:01:52 45° 200° (SSW) 2,173 9.7 -5.4°
Drops below altitude 10° 20:11:15 10° 132° (SE) 3,947 10.5 -6.4°
Enters shadow 20:12:08 - 131° (SE) 4,201 10.6 -6.5°
Sets 20:14:36 0° 127° (SE) 4,933 - -6.7°
